contact: severine.martini@mio.osupytheas.fr, dominique.lefevre@mio.osupytheas.fr
Project:EMSO Ligure-ouest http://www.emso-fr.org/EMSO-France
Sensor Aquadopp, Serial 05974 
DOI : "https://doi.org/10.17882/97948" 
Title:EMSO Western Ligurian : Data Bathybot Aquadopp sensor - deploiement 2023-04-28
Datetime,Profondeur,Latitude,Longitude,X_East,Y_North,Z_up,Amplitude_X,Amplitude_Y,Amplitude_Z,Batterie,Sound_Speed,Heading,Pitch,Roll,Pressure,Temperature,Fluorescence,Speed,Direction
time,m,degree_north,degree_east,m.s-1,m.s-1,m.s-1,1,1,1,Volt,m.s-1,degree,degree,degree,dbar,degree_C,arbitrary units (a.u.),m.s-1,degree
2023-10-18T00:03:13,2420,42.8014,5.9826,0.647,0.048,3.71,155.0,151.0,152.0,11.8,1504.7,271.2,-0.8,0.9,2485.733,13.28,785.0,0.649,85.8
2023-10-18T00:06:13,2420,42.8014,5.9826,0.693,0.023,3.628,155.0,151.0,152.0,11.8,1504.7,271.0,-0.8,0.9,2485.663,13.28,786.0,0.693,88.1
2023-10-18T00:09:13,2420,42.8014,5.9826,0.606,0.06,3.763,155.0,151.0,152.0,11.8,1504.7,271.0,-0.8,0.9,2485.641,13.28,772.0,0.609,84.3
2023-10-18T00:12:13,2420,42.8014,5.9826,0.492,0.051,3.902,155.0,151.0,152.0,11.7,1504.7,271.2,-0.8,0.9,2485.615,13.28,787.0,0.495,84.1
2023-10-18T00:15:13,2420,42.8014,5.9826,0.5,0.28,3.396,155.0,151.0,152.0,11.8,1504.7,271.2,-0.8,0.9,2485.295,13.28,787.0,0.573,60.7
2023-10-18T00:18:13,2420,42.8014,5.9826,0.853,0.04,3.507,155.0,151.0,152.0,11.8,1504.7,271.2,-0.8,0.9,2485.528,13.28,790.0,0.854,87.3
2023-10-18T00:21:13,2420,42.8014,5.9826,0.561,0.024,3.776,155.0,151.0,152.0,11.8,1504.7,271.4,-0.8,0.9,2485.548,13.28,786.0,0.561,87.6
2023-10-18T00:24:13,2420,42.8014,5.9826,0.496,0.056,3.824,155.0,151.0,152.0,11.8,1504.7,271.2,-0.8,0.9,2485.597,13.28,780.0,0.499,83.6
2023-10-18T00:27:13,2420,42.8014,5.9826,1.009,0.017,3.323,155.0,151.0,152.0,11.8,1504.7,271.2,-0.9,0.9,2485.615,13.28,781.0,1.009,89.0
2023-10-18T00:30:14,2420,42.8014,5.9826,0.388,0.057,3.958,155.0,151.0,152.0,11.8,1504.7,271.2,-0.9,0.9,2485.745,13.28,783.0,0.392,81.6
2023-10-18T00:33:13,2420,42.8014,5.9826,0.42,0.3,3.49,155.0,151.0,152.0,11.8,1504.7,271.0,-0.8,0.9,2485.223,13.28,776.0,0.516,54.5
2023-10-18T00:36:13,2420,42.8014,5.9826,1.074,0.032,3.223,155.0,151.0,152.0,11.8,1504.7,271.2,-0.8,0.9,2484.994,13.28,790.0,1.074,88.3
2023-10-18T00:39:13,2420,42.8014,5.9826,0.512,0.049,3.821,155.0,151.0,152.0,11.8,1504.7,271.0,-0.8,0.9,2485.189,13.28,783.0,0.514,84.5
2023-10-18T00:42:13,2420,42.8014,5.9826,0.294,-0.215,3.586,154.0,151.0,152.0,11.8,1504.7,271.3,-0.8,0.8,2485.111,13.28,796.0,0.364,126.2
2023-10-18T00:45:14,2420,42.8014,5.9826,0.98,0.035,3.317,155.0,151.0,152.0,11.8,1504.7,271.2,-0.9,0.9,2485.807,13.28,790.0,0.981,88.0
2023-10-18T00:48:14,2420,42.8014,5.9826,0.398,0.066,3.915,155.0,151.0,152.0,11.8,1504.7,271.3,-0.8,0.9,2485.305,13.28,791.0,0.403,80.6
2023-10-18T00:51:14,2420,42.8014,5.9826,0.729,0.292,3.1,155.0,151.0,152.0,11.8,1504.7,271.0,-0.8,0.9,2485.314,13.28,777.0,0.785,68.2
2023-10-18T00:54:14,2420,42.8014,5.9826,0.449,0.038,3.897,155.0,151.0,152.0,11.8,1504.7,271.2,-0.9,0.9,2485.733,13.28,785.0,0.451,85.2
2023-10-18T00:57:13,2420,42.8014,5.9826,0.388,0.057,3.961,155.0,151.0,152.0,11.8,1504.7,271.2,-0.8,0.9,2485.647,13.28,785.0,0.392,81.6
2023-10-18T01:03:14,2420,42.8014,5.9826,0.495,0.041,3.864,155.0,151.0,152.0,11.8,1504.7,271.2,-0.8,0.9,2485.687,13.28,794.0,0.497,85.3
2023-10-18T01:06:14,2420,42.8014,5.9826,0.372,-0.187,3.534,155.0,151.0,152.0,11.8,1504.7,271.3,-0.8,0.9,2485.599,13.28,783.0,0.416,116.7
2023-10-18T01:09:14,2420,42.8014,5.9826,0.36,0.295,3.542,155.0,151.0,152.0,11.8,1504.7,271.2,-0.9,0.9,2485.362,13.28,790.0,0.465,50.7
2023-10-18T01:12:13,2420,42.8014,5.9826,0.879,0.03,3.47,155.0,151.0,152.0,11.7,1504.7,271.2,-0.8,0.9,2485.54,13.28,787.0,0.88,88.0
2023-10-18T01:15:13,2420,42.8014,5.9826,0.66,0.025,3.656,155.0,151.0,152.0,11.8,1504.7,271.2,-0.8,0.9,2485.32,13.28,781.0,0.66,87.8
2023-10-18T01:18:13,2420,42.8014,5.9826,0.676,-0.204,3.185,155.0,151.0,152.0,11.8,1504.7,271.0,-0.8,0.9,2485.205,13.28,787.0,0.706,106.8
2023-10-18T01:21:13,2420,42.8014,5.9826,0.715,0.033,3.641,155.0,151.0,152.0,11.8,1504.7,271.0,-0.8,0.9,2485.32,13.28,776.0,0.716,87.4
2023-10-18T01:24:13,2420,42.8014,5.9826,0.562,0.056,3.815,155.0,151.0,152.0,11.8,1504.7,271.2,-0.8,0.9,2485.175,13.28,783.0,0.565,84.3
2023-10-18T01:27:13,2420,42.8014,5.9826,0.89,0.028,3.459,155.0,152.0,152.0,11.8,1504.7,271.0,-0.8,0.9,2485.221,13.28,800.0,0.89,88.2
2023-10-18T01:30:14,2420,42.8014,5.9826,0.503,0.032,3.828,155.0,151.0,152.0,11.8,1504.7,271.2,-0.8,0.9,2485.516,13.28,787.0,0.504,86.4
2023-10-18T01:33:13,2420,42.8014,5.9826,0.527,0.057,3.8,155.0,151.0,152.0,11.8,1504.7,271.0,-0.8,0.9,2485.456,13.28,790.0,0.53,83.8
2023-10-18T01:36:14,2420,42.8014,5.9826,0.914,0.017,3.354,155.0,151.0,152.0,11.7,1504.7,271.2,-0.8,0.9,2485.548,13.28,781.0,0.914,88.9
2023-10-18T01:39:14,2420,42.8014,5.9826,0.72,0.045,3.58,155.0,151.0,152.0,11.8,1504.7,271.0,-0.9,0.9,2485.314,13.28,781.0,0.721,86.4
2023-10-18T01:42:14,2420,42.8014,5.9826,0.815,-0.237,3.053,155.0,151.0,152.0,11.8,1504.7,271.3,-0.8,0.9,2485.225,13.28,2565.0,0.849,106.2
2023-10-18T01:45:14,2420,42.8014,5.9826,0.423,0.058,3.89,155.0,151.0,152.0,11.8,1504.7,271.2,-0.9,0.9,2485.542,13.28,2136.0,0.427,82.2
2023-10-18T01:48:14,2420,42.8014,5.9826,0.827,0.026,3.453,155.0,151.0,152.0,11.8,1504.7,271.0,-0.8,0.9,2485.39,13.28,2159.0,0.827,88.2
2023-10-18T01:51:14,2420,42.8014,5.9826,0.714,0.059,3.174,155.0,151.0,152.0,11.8,1504.7,271.2,-0.8,0.9,2485.147,13.28,1904.0,0.716,85.3
2023-10-18T01:54:14,2420,42.8014,5.9826,0.298,0.063,4.063,155.0,151.0,152.0,11.8,1504.7,271.0,-0.8,0.9,2485.396,13.28,2020.0,0.305,78.1
2023-10-18T01:57:14,2420,42.8014,5.9826,0.998,0.016,3.286,155.0,152.0,152.0,11.8,1504.7,271.2,-0.9,0.9,2485.332,13.28,1811.0,0.998,89.1
2023-10-18T02:03:13,2420,42.8014,5.9826,0.285,0.288,3.617,155.0,151.0,152.0,11.8,1504.7,271.2,-0.8,0.8,2484.962,13.28,1537.0,0.405,44.7
2023-10-18T02:06:13,2420,42.8014,5.9826,0.688,0.059,3.622,155.0,151.0,152.0,11.7,1504.7,271.2,-0.8,0.9,2485.04,13.28,1574.0,0.69,85.1
2023-10-18T02:09:14,2420,42.8014,5.9826,0.791,0.043,3.499,155.0,151.0,152.0,11.8,1504.7,271.2,-0.8,0.9,2485.273,13.28,1618.0,0.792,86.9
2023-10-18T02:12:14,2420,42.8014,5.9826,0.423,-0.192,3.446,155.0,151.0,152.0,11.8,1504.7,271.2,-0.9,0.9,2485.562,13.28,1572.0,0.465,114.4
2023-10-18T02:15:14,2420,42.8014,5.9826,0.44,0.069,3.92,155.0,151.0,152.0,11.8,1504.7,271.0,-0.8,0.9,2485.32,13.28,1544.0,0.445,81.1
2023-10-18T02:18:14,2420,42.8014,5.9826,0.559,0.053,3.781,155.0,151.0,152.0,11.8,1504.7,271.2,-0.8,0.9,2485.295,13.28,1513.0,0.561,84.6
2023-10-18T02:21:14,2420,42.8014,5.9826,0.223,0.055,4.079,155.0,151.0,152.0,11.8,1504.7,271.2,-0.9,0.9,2485.324,13.28,1485.0,0.229,76.1
2023-10-18T02:24:14,2420,42.8014,5.9826,0.662,0.049,3.671,155.0,151.0,152.0,11.8,1504.7,271.0,-0.8,0.9,2485.193,13.28,1700.0,0.664,85.8
2023-10-18T02:27:13,2420,42.8014,5.9826,0.515,0.059,3.794,155.0,152.0,152.0,11.8,1504.7,271.3,-0.8,0.9,2485.245,13.28,1621.0,0.518,83.5
2023-10-18T02:30:13,2420,42.8014,5.9826,0.657,0.06,3.7,155.0,151.0,152.0,11.8,1504.7,271.2,-0.8,0.9,2485.583,13.28,1728.0,0.66,84.8
2023-10-18T02:33:14,2420,42.8014,5.9826,0.53,0.053,3.779,155.0,151.0,152.0,11.8,1504.7,271.0,-0.8,0.9,2485.558,13.28,1572.0,0.533,84.3
2023-10-18T02:36:13,2420,42.8014,5.9826,0.169,-0.171,3.759,155.0,151.0,152.0,11.8,1504.7,271.0,-0.8,0.9,2485.139,13.28,1553.0,0.24,135.3
2023-10-18T02:39:13,2420,42.8014,5.9826,0.978,0.031,3.368,155.0,151.0,152.0,11.8,1504.7,271.3,-0.8,0.9,2485.301,13.28,1585.0,0.978,88.2
2023-10-18T02:42:13,2420,42.8014,5.9826,0.5,-0.189,3.408,155.0,151.0,152.0,11.8,1504.7,271.2,-0.8,0.9,2485.396,13.28,1548.0,0.534,110.7
2023-10-18T02:45:13,2420,42.8014,5.9826,0.497,0.088,3.864,155.0,151.0,152.0,11.8,1504.7,271.2,-0.9,0.9,2485.496,13.28,1575.0,0.505,80.0
2023-10-18T02:48:14,2420,42.8014,5.9826,0.643,0.045,2.823,155.0,151.0,152.0,11.8,1504.7,271.0,-0.8,0.9,2485.059,13.28,1671.0,0.644,86.0
2023-10-18T02:51:14,2420,42.8014,5.9826,0.524,0.043,3.757,155.0,151.0,152.0,11.8,1504.7,271.4,-0.8,0.9,2485.462,13.28,1589.0,0.526,85.3
2023-10-18T02:54:14,2420,42.8014,5.9826,0.209,0.059,4.127,155.0,151.0,152.0,11.8,1504.7,271.2,-0.8,0.9,2485.352,13.28,1608.0,0.217,74.2
2023-10-18T02:57:14,2420,42.8014,5.9826,0.511,0.042,3.848,155.0,151.0,152.0,11.8,1504.7,271.0,-0.8,0.9,2485.635,13.28,1640.0,0.513,85.3
2023-10-18T03:03:13,2420,42.8014,5.9826,0.499,0.046,3.821,155.0,151.0,152.0,11.8,1504.7,271.3,-0.8,0.9,2485.014,13.28,1603.0,0.501,84.7
2023-10-18T03:06:13,2420,42.8014,5.9826,0.495,0.062,3.846,155.0,151.0,152.0,11.8,1504.7,271.2,-0.8,0.8,2485.34,13.28,1634.0,0.499,82.9
2023-10-18T03:09:13,2420,42.8014,5.9826,0.597,0.066,3.702,155.0,151.0,152.0,11.8,1504.7,271.2,-0.8,0.9,2485.4,13.28,1626.0,0.601,83.7
2023-10-18T03:12:13,2420,42.8014,5.9826,0.435,0.284,3.478,155.0,151.0,152.0,11.8,1504.7,271.2,-0.8,0.9,2485.239,13.28,845.0,0.519,56.9
2023-10-18T03:15:13,2420,42.8014,5.9826,0.453,0.045,3.825,155.0,151.0,152.0,11.8,1504.7,271.2,-0.9,0.9,2485.621,13.28,774.0,0.455,84.3
2023-10-18T03:18:14,2420,42.8014,5.9826,0.63,0.044,3.673,154.0,151.0,152.0,11.8,1504.7,271.3,-0.8,0.9,2485.583,13.28,1432.0,0.631,86.0
2023-10-18T03:21:14,2420,42.8014,5.9826,0.463,0.062,3.841,155.0,151.0,152.0,11.8,1504.7,271.2,-0.8,0.9,2485.572,13.28,2281.0,0.467,82.4
2023-10-18T03:24:14,2420,42.8014,5.9826,0.549,0.098,3.735,155.0,151.0,152.0,11.8,1504.7,271.0,-0.8,0.9,2485.356,13.28,1545.0,0.558,79.9
2023-10-18T03:27:14,2420,42.8014,5.9826,0.757,-0.224,3.12,155.0,151.0,152.0,11.8,1504.7,271.2,-0.8,0.9,2485.097,13.28,782.0,0.789,106.5
2023-10-18T03:30:14,2420,42.8014,5.9826,0.398,0.081,3.914,155.0,151.0,152.0,11.7,1504.7,271.2,-0.9,0.9,2485.47,13.28,2425.0,0.406,78.5
2023-10-18T03:33:13,2420,42.8014,5.9826,0.515,0.057,3.776,155.0,151.0,152.0,11.8,1504.7,271.4,-0.8,0.9,2485.388,13.28,806.0,0.518,83.7
2023-10-18T03:36:13,2420,42.8014,5.9826,0.666,0.269,3.194,155.0,151.0,152.0,11.8,1504.7,271.2,-0.8,0.9,2485.267,13.28,781.0,0.718,68.0
2023-10-18T03:39:13,2420,42.8014,5.9826,0.404,0.288,3.447,155.0,151.0,152.0,11.8,1504.7,271.2,-0.8,0.9,2485.307,13.28,790.0,0.496,54.5
2023-10-18T03:42:14,2420,42.8014,5.9826,0.405,-0.212,3.446,155.0,151.0,152.0,11.8,1504.7,271.3,-0.8,0.9,2485.587,13.28,945.0,0.457,117.6
2023-10-18T03:45:14,2420,42.8014,5.9826,0.491,0.067,3.832,155.0,151.0,152.0,11.7,1504.7,271.2,-0.9,0.9,2485.253,13.28,885.0,0.496,82.2
2023-10-18T03:48:13,2420,42.8014,5.9826,0.568,0.057,3.763,155.0,151.0,152.0,11.8,1504.7,271.0,-0.8,0.9,2485.376,13.28,785.0,0.571,84.3
2023-10-18T03:51:13,2420,42.8014,5.9826,0.463,0.073,3.868,155.0,151.0,152.0,11.8,1504.7,271.2,-0.8,0.9,2485.227,13.28,1031.0,0.469,81.0
2023-10-18T03:54:13,2420,42.8014,5.9826,0.817,0.041,3.487,155.0,151.0,152.0,11.8,1504.7,271.0,-0.8,0.9,2485.637,13.28,783.0,0.818,87.1
2023-10-18T03:57:13,2420,42.8014,5.9826,0.432,0.072,3.819,155.0,151.0,152.0,11.8,1504.7,271.2,-0.8,0.9,2485.061,13.28,779.0,0.438,80.5
2023-10-18T04:03:13,2420,42.8014,5.9826,0.694,0.053,3.574,155.0,151.0,152.0,11.8,1504.7,271.0,-0.9,0.9,2485.464,13.28,787.0,0.696,85.6
2023-10-18T04:06:13,2420,42.8014,5.9826,0.879,0.038,3.443,155.0,151.0,152.0,11.8,1504.7,271.2,-0.8,0.9,2485.002,13.28,792.0,0.88,87.5
2023-10-18T04:09:13,2420,42.8014,5.9826,0.326,0.04,3.995,155.0,151.0,152.0,11.8,1504.7,271.2,-0.8,0.8,2485.195,13.28,783.0,0.328,83.0
2023-10-18T04:12:13,2420,42.8014,5.9826,0.471,0.031,3.852,155.0,151.0,152.0,11.8,1504.7,271.3,-0.8,0.9,2485.446,13.28,791.0,0.472,86.2
2023-10-18T04:15:13,2420,42.8014,5.9826,0.929,0.031,3.388,155.0,151.0,152.0,11.8,1504.7,271.3,-0.8,0.9,2485.273,13.28,786.0,0.93,88.1
2023-10-18T04:18:14,2420,42.8014,5.9826,0.571,0.053,3.782,155.0,151.0,152.0,11.8,1504.7,271.4,-0.8,0.9,2485.458,13.28,792.0,0.573,84.7
2023-10-18T04:21:14,2420,42.8014,5.9826,0.453,0.033,3.8,155.0,151.0,152.0,11.8,1504.7,271.2,-0.9,0.9,2485.428,13.28,816.0,0.454,85.8
2023-10-18T04:24:14,2420,42.8014,5.9826,0.41,0.041,3.904,155.0,151.0,152.0,11.8,1504.7,271.2,-0.8,0.9,2485.635,13.28,785.0,0.412,84.3
2023-10-18T04:27:14,2420,42.8014,5.9826,0.593,0.043,3.686,155.0,152.0,152.0,11.8,1504.7,271.2,-0.8,0.9,2485.348,13.28,792.0,0.594,85.9
2023-10-18T04:30:14,2420,42.8014,5.9826,0.307,0.052,3.959,155.0,151.0,152.0,11.8,1504.7,271.3,-0.8,0.9,2485.141,13.28,791.0,0.311,80.4
2023-10-18T04:33:13,2420,42.8014,5.9826,0.457,0.059,3.868,155.0,151.0,152.0,11.8,1504.7,271.0,-0.8,0.9,2485.384,13.28,785.0,0.461,82.6
2023-10-18T04:36:13,2420,42.8014,5.9826,0.183,0.043,3.629,155.0,151.0,152.0,11.8,1504.7,271.2,-0.8,0.9,2485.446,13.28,776.0,0.187,76.8
2023-10-18T04:39:13,2420,42.8014,5.9826,0.578,0.056,3.75,155.0,151.0,152.0,11.8,1504.7,271.2,-0.9,0.9,2485.221,13.28,790.0,0.581,84.5
2023-10-18T04:42:13,2420,42.8014,5.9826,0.533,0.063,3.775,155.0,152.0,152.0,11.8,1504.7,271.2,-0.9,0.9,2485.49,13.28,781.0,0.537,83.3
2023-10-18T04:45:14,2420,42.8014,5.9826,0.766,0.053,3.5,155.0,151.0,152.0,11.8,1504.7,271.4,-0.8,0.9,2485.289,13.28,5003.0,0.768,86.0
2023-10-18T04:48:14,2420,42.8014,5.9826,0.504,0.049,3.812,154.0,151.0,152.0,11.8,1504.7,271.2,-0.8,0.9,2485.452,13.28,4211.0,0.506,84.5
2023-10-18T04:51:14,2420,42.8014,5.9826,0.621,-0.084,3.443,155.0,152.0,152.0,11.8,1504.7,271.2,-0.8,0.9,2485.528,13.28,3474.0,0.627,97.7
2023-10-18T04:54:14,2420,42.8014,5.9826,0.25,0.304,3.659,155.0,151.0,152.0,11.8,1504.7,271.2,-0.8,0.9,2485.275,13.28,773.0,0.394,39.4
2023-10-18T04:57:14,2420,42.8014,5.9826,0.214,-0.199,3.677,155.0,151.0,152.0,11.8,1504.7,271.0,-0.8,0.9,2485.575,13.28,783.0,0.292,132.9
2023-10-18T05:03:13,2420,42.8014,5.9826,0.247,0.059,4.099,155.0,151.0,152.0,11.8,1504.7,271.2,-0.8,0.9,2485.089,13.28,780.0,0.253,76.6
2023-10-18T05:06:13,2420,42.8014,5.9826,0.297,0.071,4.001,155.0,151.0,152.0,11.8,1504.7,271.3,-0.8,0.9,2485.251,13.28,817.0,0.305,76.6
2023-10-18T05:09:13,2420,42.8014,5.9826,0.588,0.28,3.346,155.0,151.0,152.0,11.8,1504.7,271.3,-0.8,0.9,2485.193,13.28,781.0,0.651,64.5
2023-10-18T05:12:13,2420,42.8014,5.9826,0.857,0.033,3.45,155.0,151.0,152.0,11.8,1504.7,271.2,-0.9,0.8,2485.314,13.28,786.0,0.858,87.8
2023-10-18T05:15:14,2420,42.8014,5.9826,0.911,0.029,3.429,155.0,151.0,152.0,11.8,1504.7,271.0,-0.8,0.9,2485.448,13.28,801.0,0.911,88.2
2023-10-18T05:18:14,2420,42.8014,5.9826,0.423,0.036,3.906,155.0,151.0,152.0,11.8,1504.7,271.2,-0.9,0.9,2485.516,13.28,789.0,0.425,85.1
2023-10-18T05:21:14,2420,42.8014,5.9826,0.479,0.069,3.797,155.0,151.0,152.0,11.8,1504.7,271.2,-0.8,0.9,2485.446,13.28,775.0,0.484,81.8
2023-10-18T05:24:14,2420,42.8014,5.9826,0.528,0.046,3.782,155.0,151.0,152.0,11.8,1504.7,271.4,-0.8,0.9,2485.617,13.28,783.0,0.53,85.0
2023-10-18T05:27:14,2420,42.8014,5.9826,-0.099,0.628,3.371,155.0,151.0,152.0,11.8,1504.7,271.0,-0.9,0.9,2484.996,13.28,785.0,0.636,351.0
2023-10-18T05:30:14,2420,42.8014,5.9826,0.818,0.034,3.464,155.0,151.0,152.0,11.8,1504.7,271.4,-0.8,0.9,2484.998,13.28,778.0,0.819,87.6
2023-10-18T05:33:13,2420,42.8014,5.9826,1.074,0.023,3.261,155.0,151.0,152.0,11.7,1504.7,271.4,-0.8,0.9,2485.197,13.28,789.0,1.074,88.8
2023-10-18T05:36:13,2420,42.8014,5.9826,0.914,0.015,3.314,155.0,151.0,152.0,11.8,1504.7,271.0,-0.9,0.9,2485.454,13.28,782.0,0.914,89.1
2023-10-18T05:39:13,2420,42.8014,5.9826,0.835,0.043,3.503,155.0,151.0,152.0,11.8,1504.7,271.2,-0.8,0.9,2485.309,13.28,778.0,0.836,87.1
2023-10-18T05:42:13,2420,42.8014,5.9826,0.837,-0.084,3.26,155.0,151.0,152.0,11.8,1504.7,271.2,-0.8,0.9,2485.603,13.28,790.0,0.841,95.7
2023-10-18T05:45:13,2420,42.8014,5.9826,0.982,0.05,3.346,155.0,151.0,152.0,11.8,1504.7,271.3,-0.8,0.9,2485.695,13.28,781.0,0.983,87.1
2023-10-18T05:48:14,2420,42.8014,5.9826,0.871,0.036,3.427,155.0,151.0,152.0,11.8,1504.7,271.0,-0.8,0.8,2485.261,13.28,985.0,0.872,87.6
2023-10-18T05:51:14,2420,42.8014,5.9826,0.898,0.02,3.377,155.0,151.0,152.0,11.8,1504.7,271.3,-0.8,0.9,2485.109,13.28,786.0,0.898,88.7
2023-10-18T05:54:14,2420,42.8014,5.9826,1.072,0.025,3.251,155.0,151.0,152.0,11.8,1504.7,271.0,-0.8,0.9,2485.695,13.28,783.0,1.072,88.7
2023-10-18T05:57:14,2420,42.8014,5.9826,0.862,0.272,3.019,155.0,151.0,152.0,11.8,1504.7,271.3,-0.8,0.9,2485.071,13.28,789.0,0.904,72.5
2023-10-18T06:03:13,2420,42.8014,5.9826,0.923,-0.198,2.902,155.0,151.0,152.0,11.8,1504.7,271.2,-0.8,0.9,2485.765,13.28,778.0,0.944,102.1
2023-10-18T06:06:13,2420,42.8014,5.9826,0.918,0.044,3.385,155.0,151.0,152.0,11.8,1504.7,271.2,-0.9,0.9,2485.362,13.28,892.0,0.919,87.3
2023-10-18T06:09:13,2420,42.8014,5.9826,0.791,-0.213,3.091,155.0,151.0,152.0,11.8,1504.7,271.2,-0.8,0.9,2485.621,13.28,772.0,0.819,105.1
2023-10-18T06:12:13,2420,42.8014,5.9826,0.73,-0.224,3.12,155.0,151.0,152.0,11.8,1504.7,271.3,-0.8,0.9,2485.526,13.28,774.0,0.764,107.1
2023-10-18T06:15:13,2420,42.8014,5.9826,0.641,-0.206,3.274,155.0,151.0,152.0,11.8,1504.7,271.2,-0.9,0.9,2485.279,13.28,795.0,0.673,107.8
2023-10-18T06:18:13,2420,42.8014,5.9826,0.984,0.048,3.324,155.0,151.0,152.0,11.8,1504.7,271.2,-0.8,0.9,2485.625,13.28,790.0,0.985,87.2
2023-10-18T06:21:13,2420,42.8014,5.9826,0.744,-0.11,3.377,155.0,151.0,152.0,11.8,1504.7,271.2,-0.8,0.9,2485.36,13.28,789.0,0.752,98.4
2023-10-18T06:24:14,2420,42.8014,5.9826,0.873,0.026,3.426,155.0,151.0,152.0,11.8,1504.7,271.3,-0.8,0.9,2485.43,13.28,787.0,0.873,88.3
2023-10-18T06:27:14,2420,42.8014,5.9826,0.786,0.061,3.499,155.0,151.0,152.0,11.8,1504.7,271.2,-0.8,0.9,2485.38,13.28,801.0,0.788,85.6
2023-10-18T06:30:14,2420,42.8014,5.9826,1.062,0.01,3.172,155.0,151.0,152.0,11.8,1504.7,271.3,-0.8,0.9,2485.342,13.28,797.0,1.062,89.5
2023-10-18T06:33:13,2420,42.8014,5.9826,1.056,0.042,3.247,155.0,151.0,152.0,11.8,1504.7,271.2,-0.8,0.8,2485.575,13.28,797.0,1.057,87.7
2023-10-18T06:36:14,2420,42.8014,5.9826,0.85,-0.217,3.066,155.0,151.0,152.0,11.8,1504.7,271.2,-0.8,0.9,2485.233,13.28,791.0,0.877,104.3
2023-10-18T06:39:14,2420,42.8014,5.9826,0.84,0.048,3.456,155.0,151.0,152.0,11.7,1504.7,271.3,-0.8,0.9,2485.787,13.28,772.0,0.841,86.7
2023-10-18T06:42:14,2420,42.8014,5.9826,1.105,0.045,3.188,155.0,151.0,152.0,11.8,1504.7,271.0,-0.9,0.9,2485.581,13.28,774.0,1.106,87.7
2023-10-18T06:45:14,2420,42.8014,5.9826,0.779,0.063,3.143,155.0,151.0,152.0,11.8,1504.7,271.2,-0.8,0.9,2485.139,13.28,794.0,0.782,85.4
2023-10-18T06:48:14,2420,42.8014,5.9826,0.874,-0.213,2.994,155.0,151.0,152.0,11.8,1504.7,271.3,-0.8,0.9,2485.56,13.28,794.0,0.9,103.7
2023-10-18T06:51:14,2420,42.8014,5.9826,0.839,0.267,3.041,155.0,151.0,152.0,11.8,1504.7,271.2,-0.8,0.9,2485.474,13.28,779.0,0.88,72.4
2023-10-18T06:54:14,2420,42.8014,5.9826,0.978,0.014,3.331,155.0,152.0,152.0,11.8,1504.7,271.2,-0.8,0.9,2485.404,13.28,790.0,0.978,89.2
2023-10-18T06:57:13,2420,42.8014,5.9826,0.874,-0.069,3.231,155.0,151.0,152.0,11.8,1504.7,271.2,-0.8,0.9,2485.617,13.28,777.0,0.877,94.5
2023-10-18T07:03:13,2420,42.8014,5.9826,1.032,0.021,3.292,155.0,151.0,152.0,11.8,1504.7,271.2,-0.8,0.9,2485.55,13.28,795.0,1.032,88.8
2023-10-18T07:06:13,2420,42.8014,5.9826,1.122,0.017,3.225,155.0,151.0,152.0,11.8,1504.7,271.0,-0.8,0.9,2485.45,13.28,786.0,1.122,89.1
2023-10-18T07:09:13,2420,42.8014,5.9826,0.702,0.033,3.592,155.0,151.0,152.0,11.8,1504.7,271.2,-0.8,0.9,2485.713,13.28,785.0,0.703,87.3
2023-10-18T07:12:13,2420,42.8014,5.9826,0.858,0.05,3.433,155.0,151.0,152.0,11.8,1504.7,271.2,-0.8,0.9,2485.577,13.28,771.0,0.859,86.7
2023-10-18T07:15:14,2420,42.8014,5.9826,0.944,0.052,3.336,155.0,151.0,152.0,11.8,1504.7,271.0,-0.8,0.9,2485.295,13.28,779.0,0.945,86.8
2023-10-18T07:18:14,2420,42.8014,5.9826,1.052,0.267,2.861,155.0,151.0,152.0,11.8,1504.7,271.2,-0.8,0.9,2485.699,13.28,779.0,1.085,75.8
2023-10-18T07:21:14,2420,42.8014,5.9826,0.776,0.034,3.56,155.0,151.0,152.0,11.8,1504.7,271.0,-0.8,0.9,2485.522,13.28,794.0,0.777,87.5
2023-10-18T07:24:14,2420,42.8014,5.9826,0.965,0.041,3.389,155.0,151.0,152.0,11.8,1504.7,271.0,-0.8,0.9,2485.388,13.28,796.0,0.966,87.6
2023-10-18T07:27:14,2420,42.8014,5.9826,0.818,0.064,3.455,155.0,151.0,152.0,11.8,1504.7,271.0,-0.8,0.9,2485.701,13.28,779.0,0.821,85.5
2023-10-18T07:30:14,2420,42.8014,5.9826,0.837,0.049,3.464,155.0,151.0,152.0,11.7,1504.7,271.0,-0.8,0.9,2485.446,13.28,805.0,0.838,86.7
2023-10-18T07:33:13,2420,42.8014,5.9826,1.142,0.029,3.134,155.0,151.0,152.0,11.8,1504.7,271.2,-0.8,0.9,2485.279,13.28,779.0,1.142,88.5
2023-10-18T07:36:13,2420,42.8014,5.9826,1.055,0.017,3.259,155.0,151.0,152.0,11.8,1504.7,270.9,-0.9,0.9,2485.637,13.28,773.0,1.055,89.1
2023-10-18T07:39:13,2420,42.8014,5.9826,0.964,-0.218,2.892,155.0,151.0,152.0,11.8,1504.7,271.2,-0.8,0.9,2485.775,13.28,776.0,0.988,102.7
2023-10-18T07:42:13,2420,42.8014,5.9826,1.11,0.024,3.153,155.0,151.0,152.0,11.8,1504.7,271.0,-0.9,0.9,2485.484,13.28,780.0,1.11,88.8
2023-10-18T07:45:14,2420,42.8014,5.9826,0.859,-0.21,3.039,155.0,151.0,152.0,11.8,1504.7,270.9,-0.8,0.9,2485.546,13.28,780.0,0.884,103.7
2023-10-18T07:48:14,2420,42.8014,5.9826,0.736,0.278,3.154,155.0,151.0,152.0,11.8,1504.7,271.2,-0.8,0.8,2485.601,13.28,794.0,0.787,69.3
2023-10-18T07:51:14,2420,42.8014,5.9826,1.109,0.058,3.195,155.0,151.0,152.0,11.8,1504.7,271.2,-0.8,0.9,2485.484,13.28,787.0,1.11,87.0
2023-10-18T07:54:14,2420,42.8014,5.9826,1.009,0.047,3.285,155.0,151.0,152.0,11.8,1504.7,271.0,-0.8,0.9,2485.773,13.28,786.0,1.01,87.3
2023-10-18T07:57:14,2420,42.8014,5.9826,0.901,0.051,3.371,155.0,151.0,152.0,11.8,1504.7,271.2,-0.8,0.9,2485.432,13.28,780.0,0.902,86.8
2023-10-18T08:03:13,2420,42.8014,5.9826,0.795,0.019,3.549,155.0,151.0,152.0,11.8,1504.7,271.0,-0.8,0.9,2485.773,13.28,791.0,0.795,88.6
2023-10-18T08:06:13,2420,42.8014,5.9826,1.117,0.028,3.186,155.0,151.0,152.0,11.8,1504.7,271.2,-0.8,0.9,2485.651,13.28,789.0,1.117,88.6
2023-10-18T08:09:13,2420,42.8014,5.9826,0.814,0.031,3.552,155.0,151.0,152.0,11.8,1504.7,271.0,-0.8,0.9,2486.339,13.28,795.0,0.815,87.8
2023-10-18T08:12:14,2420,42.8014,5.9826,0.903,0.289,2.954,155.0,151.0,152.0,11.8,1504.7,271.0,-0.9,0.9,2485.199,13.28,792.0,0.948,72.3
2023-10-18T08:15:14,2420,42.8014,5.9826,0.959,0.014,3.354,155.0,151.0,152.0,11.8,1504.7,271.2,-0.9,0.9,2485.577,13.28,782.0,0.959,89.2
2023-10-18T08:18:14,2420,42.8014,5.9826,0.704,0.039,3.606,155.0,151.0,152.0,11.8,1504.7,271.2,-0.8,0.9,2485.854,13.28,793.0,0.705,86.8
2023-10-18T08:21:14,2420,42.8014,5.9826,0.897,0.048,3.378,155.0,152.0,152.0,11.8,1504.7,271.0,-0.9,0.9,2485.35,13.28,800.0,0.898,86.9
2023-10-18T08:24:14,2420,42.8014,5.9826,1.051,0.029,3.219,155.0,151.0,152.0,11.8,1504.7,271.0,-0.8,0.9,2485.442,13.28,778.0,1.051,88.4
2023-10-18T08:27:13,2420,42.8014,5.9826,0.874,-0.216,3.005,155.0,151.0,152.0,11.8,1504.7,271.2,-0.8,0.9,2485.651,13.28,789.0,0.9,103.9
2023-10-18T08:30:13,2420,42.8014,5.9826,0.838,0.05,3.443,155.0,151.0,152.0,11.8,1504.7,271.2,-0.8,0.9,2485.526,13.28,785.0,0.84,86.6
2023-10-18T08:33:14,2420,42.8014,5.9826,0.838,-0.074,3.291,155.0,151.0,152.0,11.8,1504.7,271.0,-0.8,0.9,2485.761,13.28,782.0,0.841,95.0
2023-10-18T08:36:14,2420,42.8014,5.9826,0.817,0.02,3.498,155.0,151.0,152.0,11.8,1504.7,271.0,-0.8,0.9,2485.49,13.28,794.0,0.817,88.6
2023-10-18T08:39:14,2420,42.8014,5.9826,0.958,0.055,3.353,155.0,151.0,152.0,11.8,1504.7,271.2,-0.8,0.9,2485.536,13.28,785.0,0.96,86.7
2023-10-18T08:42:14,2420,42.8014,5.9826,0.936,0.051,3.33,155.0,151.0,152.0,11.8,1504.7,271.2,-0.8,0.9,2485.653,13.28,782.0,0.937,86.9
2023-10-18T08:45:13,2420,42.8014,5.9826,0.867,0.031,3.395,155.0,151.0,152.0,11.8,1504.7,271.2,-0.8,0.9,2485.452,13.28,779.0,0.868,88.0
2023-10-18T08:48:13,2420,42.8014,5.9826,0.906,0.257,2.977,155.0,151.0,152.0,11.8,1504.7,271.0,-0.8,0.9,2485.577,13.28,804.0,0.942,74.2
2023-10-18T08:51:13,2420,42.8014,5.9826,0.96,0.043,3.341,155.0,151.0,152.0,11.8,1504.7,271.2,-0.8,0.9,2485.516,13.28,2832.0,0.961,87.4
2023-10-18T08:54:14,2420,42.8014,5.9826,1.061,0.04,3.25,155.0,151.0,152.0,11.8,1504.7,271.0,-0.8,0.9,2485.888,13.28,789.0,1.062,87.8
2023-10-18T08:57:14,2420,42.8014,5.9826,0.878,0.278,2.981,155.0,151.0,152.0,11.8,1504.7,271.0,-0.8,0.9,2485.257,13.28,789.0,0.921,72.4
2023-10-18T09:03:13,2420,42.8014,5.9826,1.025,0.025,3.281,155.0,152.0,152.0,11.8,1504.7,271.0,-0.9,0.9,2485.546,13.28,788.0,1.025,88.6
2023-10-18T09:06:13,2420,42.8014,5.9826,0.811,0.032,3.473,155.0,151.0,152.0,11.8,1504.7,271.0,-0.9,0.9,2485.597,13.28,777.0,0.812,87.7